EHI
23 17 13 6 0 0 0 0 0 0 0 0 0 0 0 0 0 0 0 0 0 0 0 0 0 0 0 0 0 0 0 0 0 0 0 0 0 0 0 0 0 0 0
24 16 11 6 1 0 0 0 0 0 0 0 0 0 0 0 0 0 0 0 0 0 0 0 0 0 0 0 0 0 0 0 0 0 0 0 0 0 0 0 0 0 0
22 12 6 6 3 1 0 0 0 0 0 0 0 0 0 0 0 0 0 0 0 0 0 0 0 0 0 0 0 0 0 0 0 0 0 0 0 0 0 0 0 0 0
15 7 3 5 4 1 0 0 0 0 0 0 0 0 0 0 0 0 0 0 0 0 0 0 0 0 0 0 0 0 0 0 0 0 0 0 0 0 0 0 0 0 0
9 5 4 6 5 1 0 0 0 0 0 0 0 0 0 0 0 0 0 0 0 0 0 0 0 0 0 0 0 0 0 0 0 0 0 0 0 0 0 0 0 0 0
13 10 9 10 7 2 0 0 0 0 0 0 0 0 0 0 0 0 0 0 0 0 0 0 0 0 0 0 0 0 0 0 0 0 0 0 0 0 0 0 0 0 0
29 20 13 13 9 2 0 0 0 0 0 0 0 0 0 0 0 0 0 0 0 0 0 0 0 0 0 0 0 0 0 0 0 0 0 0 0 0 0 0 0 0 0
45 28 15 14 9 2 0 0 0 0 0 0 0 0 0 0 0 0 0 0 0 0 0 0 0 0 0 0 0 0 0 0 0 0 0 0 0 0 0 0 0 0 0
48 30 13 8 6 1 0 0 0 0 0 0 0 0 0 0 0 0 0 0 0 0 0 0 0 0 0 0 0 0 0 0 0 0 0 0 0 0 0 0 0 0 0
39 26 9 2 1 0 0 0 0 0 0 0 0 0 0 0 0 0 0 0 0 0 0 0 0 0 0 0 0 0 0 0 0 0 0 0 0 0 0 0 0 0 0
32 24 10 3 0 0 0 0 0 0 0 0 0 0 0 0 0 0 0 0 0 0 0 0 0 0 0 0 0 0 0 0 0 0 0 0 0 0 0 0 0 0 0
28 23 17 10 5 4 3 1 0 0 0 0 0 0 0 0 0 0 0 0 0 0 0 0 0 0 0 0 0 0 0 0 0 0 0 0 0 0 0 0 0 0 0
21 20 21 21 18 15 10 4 0 0 0 0 0 0 0 0 0 0 0 0 0 0 0 0 0 0 0 0 0 0 0 0 0 0 0 0 0 0 0 0 0 0 0
18 20 24 31 34 29 19 8 2 1 0 0 0 0 0 0 0 0 0 0 0 0 0 0 0 0 0 0 0 0 0 0 0 0 0 0 0 0 0 0 0 0 0
21 28 34 39 45 42 31 17 6 2 1 0 0 0 0 0 0 0 0 0 0 0 0 0 0 0 0 0 0 0 0 0 0 0 0 0 0 0 0 0 0 0 0
23 36 48 51 52 51 45 31 14 6 3 1 0 0 0 0 0 0 0 0 0 0 0 0 0 0 0 0 0 0 0 0 0 0 0 0 0 0 0 0 0 0 0
17 32 52 61 61 60 57 46 28 16 11 6 1 0 0 0 0 0 0 0 0 0 0 0 0 0 0 0 0 0 0 0 0 0 0 0 0 0 0 0 0 0 0
10 22 43 60 69 69 67 60 46 31 21 12 4 1 0 0 0 0 0 0 0 0 0 0 0 0 0 0 0 0 0 0 0 0 0 0 0 0 0 0 0 0 0
5 14 30 50 64 70 71 69 60 45 31 19 9 2 0 0 0 0 0 0 0 0 0 0 0 0 0 0 0 0 0 0 0 0 0 0 0 0 0 0 0 0 0
2 7 20 38 53 62 68 71 66 54 39 24 10 3 0 0 0 0 0 0 0 0 0 0 0 0 0 0 0 0 0 0 0 0 0 0 0 0 0 0 0 0 0
0 3 12 26 41 53 63 70 66 51 33 17 7 2 1 0 0 0 0 0 0 0 0 0 0 0 0 0 0 0 0 0 0 0 0 0 0 0 0 0 0 0 0
0 1 6 16 30 45 57 62 53 35 16 6 2 1 0 0 0 0 0 0 0 0 0 0 0 0 0 0 0 0 0 0 0 0 0 0 0 0 0 0 0 0 0
0 0 2 8 21 37 47 46 32 14 4 0 0 0 0 0 0 0 0 0 0 0 0 0 0 0 0 0 0 0 0 0 0 0 0 0 0 0 0 0 0 0 0
0 0 1 5 15 28 37 32 17 4 0 0 0 0 0 0 0 0 0 0 0 0 0 0 0 0 0 0 0 0 0 0 0 0 0 0 0 0 0 0 0 0 0
0 0 1 5 11 20 27 24 12 3 0 0 0 0 0 0 0 0 0 0 0 0 0 0 0 0 0 0 0 0 0 0 0 0 0 0 0 0 0 0 0 0 0
0 0 2 6 9 15 21 20 10 2 0 0 0 0 0 0 0 0 0 0 0 0 0 0 0 0 0 0 0 0 0 0 0 0 0 0 0 0 0 0 0 0 0
Wind_Speed
12 14 17 17 16 15 14 14 14 13 14 15 15 15 14 13 12 11 10 10 10 9 8 7 6 7 10 11 12 12 11 10 8 6 4 4 5 6 7 8 9 5 8
16 16 17 17 16 16 15 14 13 13 13 13 14 14 13 12 11 10 10 10 10 11 11 10 10 11 12 13 12 11 10 8 5 3 2 1 2 5 7 7 8 5 6
17 16 16 17 16 16 15 14 13 13 13 13 13 13 13 12 11 10 10 10 11 12 12 13 13 13 13 12 11 10 8 6 4 6 7 2 3 6 6 6 5 5 5
17 15 14 17 17 16 15 14 13 13 12 12 13 13 12 11 11 10 10 10 11 11 12 13 13 13 12 11 9 8 7 5 5 8 4 3 4 6 6 5 5 5 5
15 13 17 17 17 16 15 14 13 13 12 12 13 13 12 12 11 11 10 10 10 10 11 11 11 11 10 9 8 7 5 5 7 8 3 3 5 6 6 5 5 6 6
14 15 16 17 18 17 15 14 14 13 13 13 13 12 12 12 11 11 11 10 9 10 10 10 10 9 8 7 6 5 5 6 9 4 2 5 5 6 6 6 6 6 6
14 16 15 17 17 17 15 14 14 13 13 13 13 12 12 12 11 11 10 9 9 9 9 9 8 8 7 5 5 4 4 7 6 3 3 6 5 7 7 7 7 7 7
15 16 14 16 16 16 15 14 14 13 13 13 12 12 12 12 11 10 10 9 8 8 8 7 7 6 5 5 4 4 4 6 6 4 5 6 7 8 8 9 9 9 10
15 15 12 11 12 14 14 13 12 12 12 11 11 11 10 10 10 10 9 8 7 7 6 6 6 5 5 4 3 3 5 6 5 3 7 5 8 9 9 10 10 11 12
13 14 12 11 10 10 10 12 12 11 10 10 10 10 10 10 10 10 8 7 7 6 6 5 5 4 4 3 1 3 5 7 3 3 5 5 9 9 9 10 11 12 13
10 12 12 12 11 11 10 11 11 10 10 10 9 10 9 6 7 6 8 8 7 6 6 5 4 3 3 2 2 3 5 3 2 6 4 7 8 8 9 11 11 12 12
7 10 11 12 11 11 10 9 7 7 7 6 6 7 5 5 5 8 10 9 8 7 6 5 4 4 3 2 3 3 2 4 4 5 5 10 9 9 11 11 12 12 12
7 7 10 11 11 10 8 8 6 5 6 7 9 9 6 4 5 6 4 5 5 6 4 4 3 1 1 2 1 2 3 3 3 5 6 11 10 10 11 11 12 12 12
12 10 8 10 10 10 9 7 7 6 6 6 7 10 5 3 4 5 4 5 4 3 2 2 1 3 3 3 4 5 5 3 3 4 5 12 11 11 11 11 11 11 12
13 14 10 9 10 9 9 6 6 6 6 6 5 6 6 4 3 4 3 3 3 3 3 2 3 4 3 4 4 4 3 3 3 5 4 11 11 11 10 11 11 11 11
9 13 12 11 10 9 8 7 6 6 6 6 5 5 6 5 4 4 4 4 3 3 3 3 4 3 3 3 3 3 3 3 3 6 5 7 10 10 9 10 10 11 12
7 10 13 13 11 10 10 9 6 5 6 5 6 6 6 6 5 5 4 4 4 4 4 4 4 3 3 2 2 2 2 3 2 3 5 4 4 7 7 7 9 10 11
7 8 12 12 12 11 9 9 6 6 6 5 6 6 7 7 7 6 5 4 4 4 4 4 3 3 3 3 3 2 2 1 2 3 3 4 3 3 3 4 7 9 10
9 8 10 11 12 11 9 7 7 6 6 5 5 5 6 7 8 6 5 5 5 5 4 4 4 3 3 3 3 1 1 1 2 2 2 4 4 2 0 2 6 9 10
10 10 11 12 12 10 8 6 5 5 5 4 4 5 7 7 8 7 5 6 6 5 4 4 4 3 3 2 3 1 1 2 1 1 1 2 3 3 1 1 2 5 10
9 10 10 12 12 10 8 8 7 6 5 4 3 6 7 8 9 8 6 6 6 5 5 5 4 4 3 3 3 2 1 1 2 2 1 0 1 1 1 1 1 2 4
9 9 9 10 12 12 9 8 6 6 5 4 4 5 7 9 9 8 8 6 6 6 6 5 4 3 2 3 2 2 2 2 2 2 2 2 1 0 1 2 2 3 3
9 9 8 9 10 11 11 8 8 7 5 4 4 4 6 8 8 8 8 7 6 6 5 5 4 4 2 2 3 2 2 1 3 3 2 1 1 0 1 2 3 3 4
9 8 8 9 10 11 13 13 15 10 8 6 5 5 7 8 8 9 9 8 7 6 6 5 4 3 3 2 1 2 2 2 0 4 4 2 2 2 3 3 3 4 4
7 7 8 9 10 11 13 15 14 10 7 9 9 10 8 7 8 8 9 8 8 6 6 6 4 4 3 2 2 1 1 0 1 2 4 4 4 3 4 4 4 4 5
5 5 6 8 9 11 13 15 14 14 14 15 13 12 9 7 7 8 9 8 8 6 6 5 4 5 4 3 1 1 1 0 0 1 3 4 4 4 5 5 5 5 4
Wind_Direction
124 133 140 135 129 125 121 118 115 113 113 111 109 106 102 96 93 89 81 73 63 57 64 77 85 100 98 94 90 83 75 67 59 53 52 61 63 49 36 22 12 34 53
128 134 139 135 130 126 121 117 115 116 116 115 113 108 104 98 95 91 85 78 66 62 67 73 82 91 91 89 87 81 74 64 44 6 332 258 95 61 37 22 16 16 27
128 135 138 134 130 126 121 118 117 118 118 118 117 113 107 102 98 94 90 82 71 69 70 72 78 82 85 85 82 76 66 50 6 328 307 234 136 69 42 19 4 2 1
130 139 138 135 132 128 124 121 120 119 119 119 119 116 110 106 102 97 94 87 80 77 75 75 78 79 81 81 76 70 57 29 338 321 321 77 99 69 40 15 1 349 341
134 139 134 138 133 130 128 126 124 124 124 124 121 118 114 109 104 100 98 93 88 86 83 81 82 81 80 76 72 63 43 355 325 302 284 86 82 52 31 11 354 341 332
134 128 138 138 136 133 132 131 129 129 128 126 125 122 119 114 109 106 104 102 97 93 89 87 85 83 81 76 69 55 25 340 317 295 56 77 79 40 23 5 349 339 326
132 129 141 139 138 137 136 137 137 136 134 133 132 130 126 120 116 114 113 110 104 97 91 89 88 86 83 74 61 43 9 328 300 303 70 75 60 36 19 15 12 7 358
128 132 141 142 141 141 141 142 143 143 142 142 141 138 133 127 125 124 121 116 107 99 93 90 88 86 80 66 50 27 347 316 322 340 78 75 46 29 24 28 24 22 23
128 133 141 145 145 145 145 146 148 148 148 148 146 139 133 132 134 133 130 123 113 103 96 92 91 89 84 74 49 359 317 306 300 315 67 60 36 30 29 31 32 35 36
133 140 150 154 154 152 151 151 151 150 152 152 143 136 136 141 145 146 140 129 123 114 108 102 101 102 105 104 75 301 303 303 281 58 66 47 37 32 38 43 45 46 44
143 149 157 159 161 159 159 158 154 153 156 150 143 149 152 165 164 154 138 136 132 128 124 123 133 153 158 176 227 272 301 303 46 75 54 42 41 44 52 54 50 45 42
159 159 160 163 164 163 160 155 162 165 162 171 168 173 192 196 158 139 137 142 145 145 144 161 185 220 213 183 235 266 345 3 40 76 49 51 54 60 62 58 52 45 40
178 176 167 167 166 164 155 163 169 171 169 194 182 184 198 167 130 133 146 147 159 164 175 187 204 228 78 86 20 41 39 19 44 72 50 60 61 63 63 57 49 42 35
178 183 181 170 167 166 163 171 168 170 170 191 179 180 183 151 153 157 159 165 168 164 151 144 126 89 53 56 47 43 30 24 62 89 65 68 66 64 61 54 46 37 28
178 176 183 177 172 171 168 172 172 172 170 178 167 170 156 142 158 149 137 133 127 119 117 87 67 67 45 41 42 50 30 30 57 92 81 79 74 66 58 50 39 29 19
183 173 175 179 178 175 172 172 175 171 167 163 158 168 153 150 158 140 125 112 100 93 90 86 75 67 59 45 25 27 24 30 62 102 116 91 87 75 59 45 32 21 10
194 176 172 178 181 180 177 176 176 170 166 160 159 168 158 151 146 132 124 117 113 106 90 72 65 59 58 21 14 45 41 36 41 107 123 124 108 90 67 41 21 9 360
202 185 176 176 180 182 180 176 173 171 164 159 156 162 161 152 138 127 124 123 115 100 91 83 62 62 54 23 4 11 9 64 24 89 104 114 111 97 66 30 9 356 348
205 194 180 171 175 179 176 171 168 163 159 159 153 155 157 144 132 127 124 122 109 97 91 87 60 55 49 12 320 285 353 75 89 84 100 116 116 113 97 339 356 346 339
206 197 183 172 173 172 167 162 155 151 154 151 147 148 145 138 129 120 117 114 108 105 103 103 105 74 47 350 313 315 90 96 116 136 120 133 154 176 190 13 7 347 341
208 200 189 176 173 170 169 168 166 161 148 135 132 135 133 126 120 119 117 112 113 115 117 116 111 96 45 356 356 341 299 209 206 170 171 139 210 189 151 15 18 3 328
217 202 194 181 175 174 174 168 156 134 117 101 93 101 112 114 118 121 119 117 114 111 100 95 94 99 67 34 40 8 349 332 309 230 174 193 242 58 26 358 348 323 310
224 210 201 191 180 172 162 145 125 102 93 97 102 97 102 110 114 121 122 119 114 110 109 102 98 101 117 67 54 84 95 299 321 315 270 223 228 314 301 300 293 293 297
223 213 205 195 183 170 161 157 156 159 156 154 136 120 113 114 118 122 123 120 114 111 114 112 99 102 107 114 83 63 114 128 81 319 319 326 355 334 308 300 298 287 279
225 211 205 196 185 172 167 162 162 158 137 131 129 128 123 121 122 125 123 120 117 115 114 106 95 83 95 101 97 74 49 33 198 211 284 306 326 318 317 304 289 277 269
236 217 204 193 184 172 165 162 164 157 146 146 147 143 136 131 126 125 122 119 117 116 118 114 107 87 82 84 72 82 115 149 320 275 277 299 297 290 300 286 280 273 269